| time (UTC) | temp C | wind direction | speed KPH | gust KPH | rain 1hr cm | rain 24hr cm | rain mn cm | humidity % | barometer mb |
| 20260901070335 | 20 | 198 | 0.0 | 3.2 | 0.00 | 0.81 | 0.05 | 96 | 1014.8 |
| 20260901065900 | 20 | 198 | 1.6 | 3.2 | 0.00 | 0.84 | 0.05 | 96 | 1014.9 |
| 20260901065336 | 20 | 198 | 0.0 | 3.2 | 0.00 | 0.84 | 0.05 | 96 | 1014.9 |
| 20260901064831 | 20 | 198 | 0.0 | 3.2 | 0.00 | 0.84 | 0.05 | 96 | 1014.9 |
| 20260901064346 | 20 | 198 | 1.6 | 3.2 | 0.00 | 0.84 | 0.05 | 96 | 1015.0 |
| 20260901063842 | 20 | 198 | 0.0 | 1.6 | 0.00 | 0.84 | 0.05 | 96 | 1015.0 |
| 20260901063355 | 20 | 198 | 0.0 | 3.2 | 0.00 | 0.84 | 0.05 | 96 | 1015.1 |
| 20260901062849 | 20 | 198 | 0.0 | 3.2 | 0.00 | 0.84 | 0.05 | 96 | 1015.1 |
| 20260901062343 | 20 | 198 | 0.0 | 3.2 | 0.00 | 0.84 | 0.05 | 96 | 1015.2 |
| 20260901061839 | 20 | 198 | 0.0 | 3.2 | 0.00 | 0.84 | 0.05 | 96 | 1015.3 |
| 20260901061332 | 20 | 198 | 0.0 | 3.2 | 0.00 | 0.84 | 0.05 | 96 | 1015.3 |
| 20260901060846 | 20 | 198 | 1.6 | 3.2 | 0.00 | 0.84 | 0.05 | 96 | 1015.2 |
| 20260901060341 | 20 | 198 | 0.0 | 3.2 | 0.00 | 0.84 | 0.05 | 96 | 1015.2 |
| 20260901055848 | 20 | 198 | 0.0 | 4.8 | 0.00 | 0.84 | 0.05 | 96 | 1015.3 |
| 20260901055341 | 20 | 198 | 1.6 | 4.8 | 0.00 | 0.84 | 0.05 | 96 | 1015.3 |
| 20260901054836 | 20 | 212 | 0.0 | 3.2 | 0.00 | 0.84 | 0.05 | 96 | 1015.3 |
| 20260901054409 | 20 | 212 | 1.6 | 3.2 | 0.00 | 0.84 | 0.05 | 96 | 1015.2 |
| 20260901053903 | 20 | 212 | 0.0 | 3.2 | 0.00 | 0.84 | 0.05 | 96 | 1015.3 |
| 20260901053336 | 20 | 212 | 1.6 | 3.2 | 0.00 | 0.84 | 0.05 | 96 | 1015.2 |
| 20260901052911 | 20 | 212 | 1.6 | 4.8 | 0.00 | 0.84 | 0.05 | 96 | 1015.3 |
| 20260901052344 | 20 | 268 | 1.6 | 4.8 | 0.03 | 0.84 | 0.05 | 96 | 1015.6 |
| 20260901051838 | 20 | 236 | 1.6 | 4.8 | 0.03 | 0.84 | 0.05 | 96 | 1015.6 |
| 20260901051352 | 20 | 227 | 0.0 | 3.2 | 0.03 | 0.84 | 0.05 | 96 | 1015.7 |
| 20260901050907 | 20 | 251 | 0.0 | 3.2 | 0.03 | 0.84 | 0.05 | 96 | 1015.7 |
| 20260901050341 | 20 | 251 | 1.6 | 3.2 | 0.05 | 0.84 | 0.05 | 96 | 1015.8 |
| 20260901045848 | 20 | 251 | 1.6 | 3.2 | 0.05 | 0.86 | 0.05 | 96 | 1015.8 |
| 20260901045342 | 20 | 251 | 1.6 | 3.2 | 0.08 | 0.86 | 0.05 | 95 | 1015.8 |
| 20260901044837 | 20 | 251 | 1.6 | 3.2 | 0.08 | 0.86 | 0.05 | 95 | 1015.9 |
| 20260901044351 | 20 | 251 | 0.0 | 4.8 | 0.08 | 0.86 | 0.05 | 95 | 1015.9 |
| 20260901043904 | 20 | 251 | 1.6 | 4.8 | 0.08 | 0.86 | 0.05 | 96 | 1015.9 |
| 20260901043338 | 20 | 251 | 1.6 | 6.4 | 0.08 | 0.86 | 0.05 | 96 | 1015.9 |
| 20260901042836 | 20 | 251 | 4.8 | 12.9 | 0.05 | 0.84 | 0.03 | 96 | 1016.0 |
| 20260901042405 | 20 | 238 | 3.2 | 12.9 | 0.05 | 0.84 | 0.03 | 96 | 1016.1 |
| 20260901041841 | 20 | 236 | 3.2 | 8.0 | 0.05 | 0.84 | 0.03 | 96 | 1016.0 |
| 20260901041336 | 20 | 220 | 3.2 | 8.0 | 0.05 | 0.84 | 0.03 | 96 | 1016.0 |
| 20260901040910 | 20 | 240 | 1.6 | 4.8 | 0.03 | 0.81 | 0.00 | 96 | 1016.0 |
| 20260901040344 | 20 | 253 | 1.6 | 4.8 | 0.03 | 0.81 | 0.00 | 96 | 1016.0 |
| 20260901035911 | 20 | 253 | 1.6 | 4.8 | 0.03 | 0.89 | 0.81 | 96 | 1016.0 |
| 20260901035345 | 20 | 188 | 1.6 | 4.8 | 0.00 | 0.86 | 0.79 | 96 | 1016.1 |
| 20260901034839 | 20 | 269 | 0.0 | 0.0 | 0.00 | 0.86 | 0.79 | 96 | 1016.1 |
| 20260901034413 | 20 | 269 | 0.0 | 0.0 | 0.00 | 0.86 | 0.79 | 96 | 1016.1 |
| 20260901033845 | 20 | 269 | 0.0 | 0.0 | 0.00 | 0.86 | 0.79 | 96 | 1016.2 |
| 20260901033339 | 20 | 269 | 0.0 | 0.0 | 0.00 | 0.86 | 0.79 | 96 | 1016.1 |
| 20260901032852 | 20 | 269 | 0.0 | 0.0 | 0.00 | 0.86 | 0.79 | 96 | 1016.1 |
| 20260901032348 | 20 | 269 | 0.0 | 0.0 | 0.00 | 0.86 | 0.79 | 96 | 1016.2 |
| 20260901031843 | 20 | 269 | 0.0 | 0.0 | 0.00 | 0.86 | 0.79 | 96 | 1016.3 |
| 20260901031338 | 20 | 269 | 0.0 | 0.0 | 0.00 | 0.86 | 0.79 | 96 | 1016.3 |
| 20260901030853 | 20 | 269 | 0.0 | 0.0 | 0.00 | 0.86 | 0.79 | 95 | 1016.2 |
| 20260901030407 | 20 | 269 | 0.0 | 0.0 | 0.00 | 0.86 | 0.79 | 95 | 1016.3 |
| 20260901025832 | 20 | 269 | 0.0 | 0.0 | 0.00 | 1.09 | 0.79 | 95 | 1016.4 |
| 20260901025347 | 20 | 269 | 0.0 | 0.0 | 0.00 | 1.09 | 0.79 | 95 | 1016.5 |
| 20260901024841 | 20 | 269 | 0.0 | 0.0 | 0.00 | 1.09 | 0.79 | 95 | 1016.4 |
| 20260901024334 | 20 | 268 | 0.0 | 0.0 | 0.00 | 1.09 | 0.79 | 95 | 1016.5 |
| 20260901023851 | 20 | 269 | 0.0 | 3.2 | 0.00 | 1.09 | 0.79 | 95 | 1016.5 |
| 20260901023345 | 20 | 269 | 0.0 | 3.2 | 0.00 | 1.09 | 0.79 | 95 | 1016.5 |
| 20260901022839 | 20 | 269 | 1.6 | 3.2 | 0.00 | 1.09 | 0.79 | 95 | 1016.6 |
| 20260901022355 | 20 | 269 | 1.6 | 3.2 | 0.00 | 1.09 | 0.79 | 95 | 1016.7 |
| 20260901021847 | 20 | 269 | 1.6 | 3.2 | 0.00 | 1.09 | 0.79 | 95 | 1016.8 |
| 20260901021340 | 20 | 281 | 0.0 | 3.2 | 0.00 | 1.09 | 0.79 | 95 | 1016.8 |
| 20260901020835 | 20 | 281 | 1.6 | 3.2 | 0.00 | 1.09 | 0.79 | 95 | 1017.0 |
| 20260901020329 | 20 | 284 | 0.0 | 4.8 | 0.00 | 1.09 | 0.79 | 95 | 1016.9 |
| 20260901015837 | 20 | 202 | 1.6 | 4.8 | 0.00 | 1.17 | 0.79 | 95 | 1016.9 |
| 20260901015353 | 20 | 242 | 1.6 | 3.2 | 0.00 | 1.17 | 0.79 | 95 | 1017.0 |
| 20260901014846 | 20 | 242 | 1.6 | 3.2 | 0.00 | 1.17 | 0.79 | 95 | 1017.0 |
| 20260901014400 | 20 | 242 | 1.6 | 3.2 | 0.00 | 1.17 | 0.79 | 95 | 1017.0 |
| 20260901013832 | 20 | 242 | 0.0 | 3.2 | 0.00 | 1.17 | 0.79 | 95 | 1016.9 |
| 20260901013347 | 20 | 242 | 0.0 | 3.2 | 0.00 | 1.17 | 0.79 | 95 | 1016.8 |
| 20260901012905 | 20 | 242 | 0.0 | 3.2 | 0.00 | 1.17 | 0.79 | 95 | 1017.0 |
| 20260901012344 | 20 | 242 | 0.0 | 1.6 | 0.00 | 1.17 | 0.79 | 95 | 1016.9 |
| 20260901011838 | 20 | 242 | 0.0 | 1.6 | 0.00 | 1.17 | 0.79 | 95 | 1016.9 |
| 20260901011352 | 20 | 242 | 0.0 | 1.6 | 0.00 | 1.17 | 0.79 | 95 | 1017.0 |
| 20260901010846 | 20 | 242 | 0.0 | 1.6 | 0.00 | 1.17 | 0.79 | 95 | 1017.0 |
| 20260901010341 | 20 | 242 | 0.0 | 3.2 | 0.00 | 1.17 | 0.79 | 95 | 1017.0 |
| 20260901005908 | 20 | 242 | 1.6 | 3.2 | 0.00 | 1.19 | 0.79 | 94 | 1016.9 |
| 20260901005341 | 20 | 242 | 1.6 | 1.6 | 0.00 | 1.19 | 0.79 | 94 | 1016.9 |
| 20260901004835 | 20 | 242 | 0.0 | 3.2 | 0.00 | 1.19 | 0.79 | 94 | 1016.9 |
| 20260901004351 | 20 | 242 | 0.0 | 4.8 | 0.00 | 1.19 | 0.79 | 94 | 1016.9 |
| 20260901003906 | 20 | 242 | 1.6 | 4.8 | 0.00 | 1.19 | 0.79 | 94 | 1016.8 |
| 20260901003401 | 20 | 242 | 1.6 | 4.8 | 0.00 | 1.19 | 0.79 | 94 | 1017.0 |
| 20260901002854 | 20 | 242 | 0.0 | 3.2 | 0.00 | 1.19 | 0.79 | 94 | 1016.7 |
| 20260901002348 | 20 | 242 | 0.0 | 3.2 | 0.00 | 1.19 | 0.79 | 94 | 1016.7 |
| 20260901001843 | 20 | 242 | 0.0 | 3.2 | 0.00 | 1.19 | 0.79 | 94 | 1016.6 |
| 20260901001358 | 20 | 242 | 1.6 | 3.2 | 0.00 | 1.19 | 0.79 | 94 | 1016.6 |
| 20260901000851 | 20 | 242 | 0.0 | 4.8 | 0.00 | 1.19 | 0.79 | 94 | 1016.6 |
| 20260901000347 | 20 | 242 | 0.0 | 4.8 | 0.00 | 1.19 | 0.79 | 94 | 1016.7 |
| 20260831235835 | 20 | 225 | 1.6 | 3.2 | 0.00 | 1.22 | 0.79 | 93 | 1016.6 |
| 20260831235410 | 20 | 225 | 1.6 | 4.8 | 0.00 | 1.22 | 0.79 | 93 | 1016.7 |
| 20260831234904 | 20 | 225 | 1.6 | 4.8 | 0.00 | 1.22 | 0.79 | 93 | 1016.7 |
| 20260831234339 | 20 | 241 | 1.6 | 6.4 | 0.00 | 1.22 | 0.79 | 93 | 1016.7 |
| 20260831233852 | 20 | 238 | 3.2 | 6.4 | 0.00 | 1.22 | 0.79 | 93 | 1016.7 |
| 20260831233346 | 20 | 242 | 1.6 | 6.4 | 0.00 | 1.22 | 0.79 | 93 | 1016.7 |
| 20260831232840 | 20 | 209 | 1.6 | 4.8 | 0.00 | 1.22 | 0.79 | 93 | 1016.7 |
| 20260831232355 | 21 | 209 | 1.6 | 4.8 | 0.00 | 1.22 | 0.79 | 93 | 1016.7 |
| 20260831231849 | 21 | 209 | 3.2 | 4.8 | 0.00 | 1.22 | 0.79 | 93 | 1016.7 |
| 20260831231345 | 21 | 209 | 1.6 | 4.8 | 0.00 | 1.22 | 0.79 | 93 | 1016.7 |
| 20260831230838 | 21 | 209 | 3.2 | 4.8 | 0.00 | 1.22 | 0.79 | 93 | 1016.7 |
| 20260831230334 | 21 | 206 | 1.6 | 3.2 | 0.00 | 1.22 | 0.79 | 93 | 1016.7 |
| 20260831225841 | 21 | 206 | 1.6 | 8.0 | 0.00 | 1.24 | 0.79 | 93 | 1016.8 |
| 20260831225341 | 21 | 206 | 3.2 | 8.0 | 0.00 | 1.24 | 0.79 | 93 | 1016.7 |
| 20260831224835 | 21 | 223 | 3.2 | 8.0 | 0.00 | 1.24 | 0.79 | 93 | 1016.6 |
| 20260831224349 | 21 | 237 | 4.8 | 8.0 | 0.00 | 1.24 | 0.79 | 93 | 1016.8 |
| 20260831223845 | 21 | 198 | 1.6 | 8.0 | 0.00 | 1.24 | 0.79 | 93 | 1016.8 |
| 20260831223339 | 21 | 166 | 3.2 | 8.0 | 0.00 | 1.24 | 0.79 | 93 | 1016.9 |
| 20260831222834 | 21 | 192 | 1.6 | 4.8 | 0.00 | 1.24 | 0.79 | 93 | 1017.0 |
| 20260831222349 | 21 | 173 | 1.6 | 4.8 | 0.00 | 1.24 | 0.79 | 93 | 1016.9 |
| 20260831221843 | 21 | 173 | 1.6 | 8.0 | 0.00 | 1.24 | 0.79 | 93 | 1017.0 |
| 20260831221337 | 21 | 238 | 3.2 | 8.0 | 0.00 | 1.24 | 0.79 | 93 | 1017.0 |
| 20260831220851 | 21 | 236 | 0.0 | 11.3 | 0.00 | 1.24 | 0.79 | 93 | 1017.2 |
| 20260831220348 | 21 | 219 | 4.8 | 11.3 | 0.00 | 1.24 | 0.79 | 93 | 1017.2 |
| 20260831215836 | 21 | 207 | 1.6 | 14.5 | 0.00 | 1.24 | 0.79 | 93 | 1017.0 |
| 20260831215351 | 21 | 238 | 4.8 | 14.5 | 0.00 | 1.24 | 0.79 | 93 | 1016.8 |
| 20260831214845 | 21 | 276 | 6.4 | 12.9 | 0.00 | 1.24 | 0.79 | 93 | 1017.0 |
| 20260831214401 | 21 | 144 | 3.2 | 9.7 | 0.00 | 1.24 | 0.79 | 93 | 1017.1 |
| 20260831213833 | 21 | 190 | 3.2 | 9.7 | 0.00 | 1.24 | 0.79 | 93 | 1017.2 |
| 20260831213348 | 21 | 206 | 3.2 | 8.0 | 0.00 | 1.24 | 0.79 | 93 | 1017.3 |
| 20260831212842 | 21 | 229 | 3.2 | 9.7 | 0.00 | 1.24 | 0.79 | 93 | 1017.1 |
| 20260831212337 | 21 | 210 | 3.2 | 9.7 | 0.00 | 1.24 | 0.79 | 93 | 1017.1 |
| 20260831211851 | 21 | 214 | 1.6 | 8.0 | 0.00 | 1.24 | 0.79 | 93 | 1017.0 |
| 20260831211346 | 21 | 221 | 1.6 | 19.3 | 0.00 | 1.24 | 0.79 | 93 | 1017.0 |
| 20260831210845 | 21 | 215 | 8.0 | 19.3 | 0.00 | 1.24 | 0.79 | 93 | 1016.8 |
| 20260831210341 | 21 | 228 | 4.8 | 12.9 | 0.00 | 1.24 | 0.79 | 93 | 1016.8 |
| 20260831205848 | 21 | 215 | 3.2 | 16.1 | 0.00 | 1.24 | 0.79 | 94 | 1016.7 |
| 20260831205342 | 21 | 193 | 6.4 | 16.1 | 0.03 | 1.24 | 0.79 | 93 | 1016.7 |
| 20260831204838 | 21 | 186 | 3.2 | 11.3 | 0.03 | 1.24 | 0.79 | 93 | 1016.8 |
| 20260831204333 | 21 | 164 | 3.2 | 14.5 | 0.03 | 1.24 | 0.79 | 93 | 1016.7 |
| 20260831203848 | 21 | 220 | 4.8 | 11.3 | 0.03 | 1.24 | 0.79 | 93 | 1016.7 |
| 20260831203342 | 21 | 168 | 3.2 | 11.3 | 0.03 | 1.24 | 0.79 | 93 | 1016.8 |
| 20260831202856 | 21 | 188 | 1.6 | 11.3 | 0.03 | 1.24 | 0.79 | 93 | 1016.9 |
| 20260831202411 | 21 | 227 | 4.8 | 12.9 | 0.03 | 1.24 | 0.79 | 94 | 1016.9 |
| 20260831201903 | 22 | 237 | 3.2 | 12.9 | 0.03 | 1.24 | 0.79 | 94 | 1016.9 |
| 20260831201358 | 22 | 233 | 4.8 | 12.9 | 0.03 | 1.24 | 0.79 | 94 | 1017.0 |
| 20260831200850 | 22 | 238 | 4.8 | 12.9 | 0.03 | 1.24 | 0.79 | 94 | 1017.0 |
| 20260831200407 | 22 | 215 | 4.8 | 12.9 | 0.03 | 1.24 | 0.79 | 94 | 1017.0 |
| 20260831195833 | 22 | 244 | 4.8 | 12.9 | 0.03 | 1.24 | 0.79 | 94 | 1017.0 |
| 20260831195407 | 22 | 262 | 4.8 | 12.9 | 0.00 | 1.22 | 0.76 | 94 | 1017.0 |
| 20260831194841 | 22 | 200 | 3.2 | 8.0 | 0.00 | 1.22 | 0.76 | 94 | 1017.2 |
| 20260831194336 | 22 | 238 | 3.2 | 11.3 | 0.00 | 1.22 | 0.76 | 94 | 1017.2 |
| 20260831193851 | 22 | 251 | 1.6 | 12.9 | 0.00 | 1.22 | 0.76 | 94 | 1017.4 |
| 20260831193346 | 22 | 232 | 3.2 | 12.9 | 0.00 | 1.22 | 0.76 | 94 | 1017.4 |
| 20260831192841 | 22 | 207 | 6.4 | 14.5 | 0.00 | 1.22 | 0.76 | 94 | 1017.4 |
| 20260831192336 | 22 | 223 | 1.6 | 11.3 | 0.00 | 1.22 | 0.76 | 94 | 1017.4 |
| 20260831191749 | 21 | 212 | 1.6 | 4.8 | 0.00 | 1.22 | 0.76 | 94 | 1017.5 |
| 20260831190909 | 21 | 202 | 1.6 | 4.8 | 0.00 | 1.22 | 0.76 | 94 | 1017.6 |
| 20260831190343 | 21 | 156 | 0.0 | 6.4 | 0.00 | 1.22 | 0.76 | 94 | 1017.6 |
| 20260831185850 | 21 | 156 | 1.6 | 6.4 | 0.00 | 1.24 | 0.76 | 94 | 1017.6 |
| 20260831185344 | 21 | 201 | 1.6 | 4.8 | 0.03 | 1.24 | 0.76 | 94 | 1017.5 |
| 20260831184839 | 21 | 187 | 1.6 | 1.6 | 0.03 | 1.24 | 0.76 | 94 | 1017.7 |
| 20260831184333 | 21 | 187 | 0.0 | 1.6 | 0.03 | 1.24 | 0.76 | 94 | 1017.9 |
| 20260831183848 | 21 | 186 | 0.0 | 4.8 | 0.03 | 1.24 | 0.76 | 94 | 1017.9 |
| 20260831183342 | 21 | 186 | 0.0 | 6.4 | 0.03 | 1.24 | 0.76 | 94 | 1017.9 |
| 20260831182836 | 21 | 213 | 3.2 | 6.4 | 0.03 | 1.24 | 0.76 | 94 | 1017.9 |
| 20260831182350 | 21 | 180 | 1.6 | 9.7 | 0.03 | 1.24 | 0.76 | 94 | 1017.9 |
| 20260831181845 | 21 | 180 | 3.2 | 9.7 | 0.03 | 1.24 | 0.76 | 94 | 1018.0 |
| 20260831181344 | 21 | 208 | 3.2 | 11.3 | 0.03 | 1.24 | 0.76 | 95 | 1017.9 |
| 20260831180839 | 21 | 226 | 3.2 | 9.7 | 0.03 | 1.24 | 0.76 | 94 | 1017.8 |
| 20260831180334 | 21 | 231 | 3.2 | 9.7 | 0.03 | 1.24 | 0.76 | 95 | 1017.8 |
| 20260831175839 | 21 | 200 | 3.2 | 8.0 | 0.03 | 1.24 | 0.76 | 95 | 1017.9 |
| 20260831175333 | 21 | 261 | 3.2 | 8.0 | 0.00 | 1.22 | 0.74 | 95 | 1017.7 |
| 20260831174848 | 21 | 191 | 1.6 | 6.4 | 0.00 | 1.22 | 0.74 | 95 | 1017.7 |
| 20260831174343 | 21 | 221 | 3.2 | 6.4 | 0.00 | 1.22 | 0.74 | 95 | 1017.9 |
| 20260831173837 | 21 | 207 | 1.6 | 4.8 | 0.00 | 1.22 | 0.74 | 95 | 1017.7 |
| 20260831173332 | 21 | 244 | 1.6 | 6.4 | 0.03 | 1.22 | 0.74 | 95 | 1017.7 |
| 20260831172847 | 21 | 263 | 1.6 | 6.4 | 0.03 | 1.22 | 0.74 | 95 | 1017.7 |
| 20260831172341 | 21 | 208 | 1.6 | 6.4 | 0.05 | 1.22 | 0.74 | 95 | 1017.8 |
| 20260831171838 | 21 | 192 | 1.6 | 8.0 | 0.13 | 1.22 | 0.74 | 95 | 1017.8 |
| 20260831171352 | 21 | 236 | 3.2 | 8.0 | 0.18 | 1.22 | 0.74 | 96 | 1017.9 |
| 20260831170848 | 20 | 222 | 1.6 | 4.8 | 0.18 | 1.22 | 0.74 | 96 | 1018.0 |
| 20260831170343 | 20 | 222 | 0.0 | 4.8 | 0.23 | 1.22 | 0.74 | 96 | 1017.8 |
| 20260831165851 | 20 | 137 | 1.6 | 4.8 | 0.23 | 1.22 | 0.74 | 96 | 1017.9 |
| 20260831165406 | 20 | 244 | 1.6 | 4.8 | 0.23 | 1.22 | 0.74 | 96 | 1018.1 |
| 20260831164839 | 20 | 154 | 1.6 | 4.8 | 0.23 | 1.22 | 0.74 | 96 | 1018.0 |
| 20260831164413 | 19 | 154 | 0.0 | 4.8 | 0.23 | 1.22 | 0.74 | 96 | 1018.0 |
| 20260831163847 | 19 | 209 | 0.0 | 6.4 | 0.23 | 1.22 | 0.74 | 96 | 1018.0 |
| 20260831163342 | 19 | 217 | 3.2 | 6.4 | 0.20 | 1.19 | 0.71 | 96 | 1018.0 |
| 20260831162841 | 19 | 294 | 1.6 | 4.8 | 0.20 | 1.19 | 0.71 | 96 | 1018.1 |
| 20260831162408 | 19 | 233 | 1.6 | 6.4 | 0.20 | 1.17 | 0.69 | 96 | 1018.2 |
| 20260831161901 | 19 | 242 | 1.6 | 6.4 | 0.13 | 1.09 | 0.61 | 96 | 1018.2 |
| 20260831161413 | 19 | 142 | 0.0 | 3.2 | 0.08 | 1.04 | 0.56 | 96 | 1018.2 |
| 20260831160847 | 18 | 142 | 0.0 | 6.4 | 0.08 | 1.04 | 0.56 | 96 | 1018.3 |
| 20260831160346 | 18 | 115 | 0.0 | 1.6 | 0.03 | 0.99 | 0.51 | 96 | 1018.3 |
| 20260831155832 | 18 | 115 | 0.0 | 3.2 | 0.03 | 0.99 | 0.51 | 96 | 1018.3 |
| 20260831155348 | 18 | 115 | 0.0 | 4.8 | 0.03 | 0.99 | 0.51 | 96 | 1018.4 |
| 20260831154843 | 18 | 218 | 1.6 | 6.4 | 0.03 | 0.99 | 0.51 | 96 | 1018.5 |
| 20260831154337 | 18 | 217 | 3.2 | 6.4 | 0.03 | 0.99 | 0.51 | 96 | 1018.5 |
| 20260831153851 | 18 | 118 | 1.6 | 4.8 | 0.03 | 0.99 | 0.51 | 96 | 1018.4 |
| 20260831153346 | 18 | 238 | 1.6 | 4.8 | 0.05 | 0.99 | 0.51 | 96 | 1018.5 |
| 20260831152840 | 18 | 229 | 1.6 | 4.8 | 0.10 | 0.99 | 0.51 | 96 | 1018.5 |
| 20260831152335 | 18 | 248 | 1.6 | 4.8 | 0.13 | 0.97 | 0.48 | 96 | 1018.3 |
| 20260831151909 | 18 | 178 | 1.6 | 8.0 | 0.18 | 0.97 | 0.48 | 96 | 1018.2 |
| 20260831151405 | 18 | 215 | 1.6 | 8.0 | 0.18 | 0.97 | 0.48 | 96 | 1018.2 |
| 20260831150841 | 18 | 204 | 1.6 | 4.8 | 0.18 | 0.97 | 0.48 | 96 | 1018.2 |
| 20260831150336 | 18 | 244 | 0.0 | 4.8 | 0.18 | 0.97 | 0.48 | 95 | 1018.2 |
| 20260831145903 | 18 | 177 | 0.0 | 3.2 | 0.18 | 0.97 | 0.48 | 95 | 1018.2 |
| 20260831145338 | 18 | 188 | 0.0 | 4.8 | 0.18 | 0.97 | 0.48 | 95 | 1018.2 |
| 20260831144851 | 18 | 132 | 1.6 | 4.8 | 0.20 | 0.97 | 0.48 | 95 | 1018.2 |
| 20260831144405 | 18 | 173 | 1.6 | 4.8 | 0.20 | 0.97 | 0.48 | 95 | 1018.2 |
| 20260831143839 | 18 | 174 | 0.0 | 6.4 | 0.20 | 0.94 | 0.46 | 95 | 1018.2 |
| 20260831143354 | 18 | 242 | 3.2 | 6.4 | 0.23 | 0.94 | 0.46 | 95 | 1018.2 |
| 20260831142846 | 18 | 186 | 0.0 | 4.8 | 0.18 | 0.89 | 0.41 | 95 | 1018.1 |
| 20260831142340 | 18 | 186 | 1.6 | 4.8 | 0.15 | 0.84 | 0.36 | 95 | 1018.1 |
| 20260831141833 | 18 | 180 | 0.0 | 3.2 | 0.10 | 0.79 | 0.30 | 95 | 1018.1 |
| 20260831141348 | 18 | 180 | 1.6 | 4.8 | 0.10 | 0.79 | 0.30 | 95 | 1018.1 |
| 20260831140843 | 17 | 134 | 0.0 | 9.7 | 0.10 | 0.79 | 0.30 | 95 | 1018.1 |
| 20260831140338 | 17 | 144 | 1.6 | 9.7 | 0.13 | 0.79 | 0.30 | 95 | 1018.1 |
| 20260831135845 | 17 | 98 | 1.6 | 9.7 | 0.13 | 0.79 | 0.30 | 95 | 1018.2 |
| 20260831135344 | 17 | 161 | 3.2 | 9.7 | 0.13 | 0.79 | 0.30 | 95 | 1018.1 |
| 20260831134839 | 17 | 209 | 1.6 | 6.4 | 0.10 | 0.76 | 0.28 | 95 | 1018.1 |
| 20260831134334 | 17 | 136 | 0.0 | 8.0 | 0.10 | 0.76 | 0.28 | 95 | 1018.2 |
| 20260831133909 | 17 | 152 | 1.6 | 8.0 | 0.08 | 0.74 | 0.25 | 95 | 1018.2 |
| 20260831133343 | 17 | 200 | 3.2 | 8.0 | 0.05 | 0.71 | 0.23 | 95 | 1018.3 |
| 20260831132838 | 17 | 273 | 0.0 | 6.4 | 0.05 | 0.71 | 0.23 | 95 | 1018.2 |
| 20260831132353 | 17 | 175 | 1.6 | 6.4 | 0.03 | 0.69 | 0.20 | 95 | 1018.1 |
| 20260831131908 | 17 | 192 | 0.0 | 8.0 | 0.03 | 0.69 | 0.20 | 95 | 1018.2 |
| 20260831131342 | 17 | 209 | 3.2 | 8.0 | 0.03 | 0.69 | 0.20 | 95 | 1018.3 |
| 20260831130838 | 17 | 204 | 0.0 | 8.0 | 0.03 | 0.69 | 0.20 | 95 | 1018.2 |
| 20260831130353 | 17 | 222 | 0.0 | 8.0 | 0.03 | 0.66 | 0.18 | 95 | 1018.2 |
| 20260831125838 | 17 | 196 | 0.0 | 6.4 | 0.03 | 0.66 | 0.18 | 95 | 1018.2 |
| 20260831125333 | 17 | 138 | 0.0 | 3.2 | 0.03 | 0.66 | 0.18 | 95 | 1018.1 |
| 20260831124908 | 17 | 138 | 0.0 | 3.2 | 0.03 | 0.66 | 0.18 | 95 | 1018.0 |
| 20260831124342 | 17 | 215 | 1.6 | 3.2 | 0.03 | 0.66 | 0.18 | 95 | 1018.0 |
| 20260831123856 | 17 | 208 | 0.0 | 3.2 | 0.03 | 0.66 | 0.18 | 95 | 1018.1 |
| 20260831123350 | 17 | 208 | 1.6 | 3.2 | 0.03 | 0.66 | 0.18 | 95 | 1018.1 |
| 20260831122844 | 17 | 215 | 0.0 | 6.4 | 0.03 | 0.66 | 0.18 | 95 | 1018.0 |
| 20260831122339 | 17 | 200 | 1.6 | 6.4 | 0.03 | 0.66 | 0.18 | 95 | 1018.1 |
| 20260831121832 | 17 | 229 | 0.0 | 4.8 | 0.03 | 0.66 | 0.18 | 95 | 1018.2 |
| 20260831121408 | 17 | 288 | 0.0 | 4.8 | 0.03 | 0.66 | 0.18 | 95 | 1018.3 |
| 20260831120840 | 17 | 288 | 0.0 | 4.8 | 0.03 | 0.66 | 0.18 | 95 | 1018.5 |
| 20260831120336 | 17 | 139 | 0.0 | 4.8 | 0.00 | 0.64 | 0.15 | 95 | 1018.6 |
| 20260831115844 | 17 | 139 | 0.0 | 4.8 | 0.00 | 0.64 | 0.15 | 95 | 1018.6 |
| 20260831115338 | 17 | 139 | 1.6 | 3.2 | 0.00 | 0.64 | 0.15 | 95 | 1018.7 |
| 20260831114833 | 17 | 177 | 1.6 | 3.2 | 0.00 | 0.64 | 0.15 | 95 | 1018.6 |
| 20260831114348 | 17 | 177 | 1.6 | 3.2 | 0.00 | 0.64 | 0.15 | 95 | 1018.4 |
| 20260831113902 | 17 | 177 | 0.0 | 3.2 | 0.00 | 0.64 | 0.15 | 95 | 1018.2 |
| 20260831113336 | 17 | 164 | 0.0 | 3.2 | 0.00 | 0.64 | 0.15 | 95 | 1018.2 |
| 20260831112834 | 17 | 164 | 0.0 | 3.2 | 0.00 | 0.64 | 0.15 | 95 | 1018.2 |
| 20260831112348 | 17 | 157 | 0.0 | 0.0 | 0.00 | 0.64 | 0.15 | 95 | 1018.3 |
| 20260831111842 | 17 | 157 | 0.0 | 0.0 | 0.00 | 0.64 | 0.15 | 95 | 1018.2 |
| 20260831111337 | 17 | 157 | 0.0 | 0.0 | 0.00 | 0.64 | 0.15 | 95 | 1018.5 |
| 20260831110851 | 17 | 157 | 0.0 | 0.0 | 0.00 | 0.64 | 0.15 | 95 | 1018.6 |
| 20260831110346 | 17 | 157 | 0.0 | 1.6 | 0.00 | 0.64 | 0.15 | 95 | 1018.5 |
| 20260831105834 | 17 | 157 | 0.0 | 6.4 | 0.00 | 0.64 | 0.15 | 95 | 1018.4 |
| 20260831105350 | 17 | 157 | 3.2 | 6.4 | 0.00 | 0.64 | 0.15 | 95 | 1018.5 |
| 20260831104844 | 17 | 213 | 0.0 | 3.2 | 0.00 | 0.64 | 0.15 | 95 | 1018.6 |
| 20260831104337 | 17 | 213 | 0.0 | 4.8 | 0.00 | 0.64 | 0.15 | 95 | 1018.6 |
| 20260831103852 | 17 | 213 | 1.6 | 6.4 | 0.00 | 0.64 | 0.15 | 95 | 1018.5 |
| 20260831103406 | 17 | 274 | 0.0 | 8.0 | 0.00 | 0.64 | 0.15 | 95 | 1018.4 |
| 20260831102841 | 17 | 138 | 1.6 | 8.0 | 0.00 | 0.64 | 0.15 | 95 | 1018.2 |
| 20260831102335 | 17 | 207 | 1.6 | 6.4 | 0.00 | 0.64 | 0.15 | 95 | 1018.3 |
| 20260831101851 | 17 | 251 | 0.0 | 3.2 | 0.00 | 0.64 | 0.15 | 95 | 1018.2 |
| 20260831101344 | 17 | 251 | 0.0 | 4.8 | 0.00 | 0.64 | 0.15 | 95 | 1018.5 |
| 20260831100840 | 17 | 206 | 1.6 | 4.8 | 0.00 | 0.64 | 0.15 | 95 | 1018.5 |
| 20260831100355 | 17 | 214 | 0.0 | 4.8 | 0.00 | 0.64 | 0.15 | 95 | 1018.5 |
| 20260831095859 | 17 | 214 | 0.0 | 4.8 | 0.00 | 0.64 | 0.15 | 95 | 1018.5 |
| 20260831095353 | 17 | 176 | 0.0 | 3.2 | 0.00 | 0.64 | 0.15 | 95 | 1018.4 |
| 20260831094846 | 17 | 176 | 0.0 | 3.2 | 0.00 | 0.64 | 0.15 | 95 | 1018.4 |
| 20260831094401 | 17 | 138 | 0.0 | 1.6 | 0.00 | 0.64 | 0.15 | 95 | 1018.3 |
| 20260831093854 | 17 | 138 | 0.0 | 1.6 | 0.00 | 0.64 | 0.15 | 95 | 1018.4 |
| 20260831093348 | 17 | 138 | 0.0 | 6.4 | 0.00 | 0.64 | 0.15 | 94 | 1018.5 |
| 20260831092902 | 17 | 138 | 0.0 | 6.4 | 0.00 | 0.64 | 0.15 | 94 | 1018.6 |
| 20260831092335 | 17 | 149 | 1.6 | 3.2 | 0.00 | 0.64 | 0.15 | 94 | 1018.5 |
| 20260831091849 | 17 | 119 | 0.0 | 3.2 | 0.00 | 0.64 | 0.15 | 94 | 1018.5 |
| 20260831091344 | 17 | 151 | 0.0 | 3.2 | 0.00 | 0.64 | 0.15 | 94 | 1018.4 |
| 20260831090837 | 17 | 151 | 0.0 | 3.2 | 0.03 | 0.64 | 0.15 | 94 | 1018.5 |
| 20260831090333 | 17 | 151 | 1.6 | 11.3 | 0.03 | 0.64 | 0.15 | 94 | 1018.3 |
| 20260831085841 | 17 | 153 | 1.6 | 11.3 | 0.03 | 0.64 | 0.15 | 94 | 1018.4 |
| 20260831085335 | 17 | 184 | 3.2 | 6.4 | 0.03 | 0.64 | 0.15 | 94 | 1018.7 |
| 20260831084834 | 17 | 180 | 0.0 | 3.2 | 0.03 | 0.64 | 0.15 | 94 | 1018.7 |
| 20260831084348 | 17 | 137 | 0.0 | 4.8 | 0.05 | 0.64 | 0.15 | 94 | 1018.7 |
| 20260831083843 | 17 | 218 | 0.0 | 4.8 | 0.05 | 0.64 | 0.15 | 94 | 1018.8 |
| 20260831083337 | 17 | 163 | 0.0 | 3.2 | 0.05 | 0.64 | 0.15 | 94 | 1018.8 |
| 20260831082851 | 17 | 163 | 0.0 | 3.2 | 0.05 | 0.64 | 0.15 | 94 | 1018.7 |
| 20260831082345 | 17 | 163 | 1.6 | 3.2 | 0.05 | 0.64 | 0.15 | 94 | 1018.8 |
| 20260831081901 | 17 | 165 | 0.0 | 3.2 | 0.05 | 0.64 | 0.15 | 94 | 1018.8 |
| 20260831081334 | 17 | 165 | 0.0 | 3.2 | 0.05 | 0.64 | 0.15 | 94 | 1018.8 |
| 20260831080848 | 17 | 165 | 1.6 | 3.2 | 0.05 | 0.61 | 0.13 | 94 | 1018.8 |
| 20260831080344 | 17 | 218 | 0.0 | 4.8 | 0.08 | 0.61 | 0.13 | 94 | 1018.8 |
| 20260831075850 | 17 | 232 | 0.0 | 6.4 | 0.08 | 0.61 | 0.13 | 94 | 1018.8 |
| 20260831075345 | 17 | 215 | 1.6 | 8.0 | 0.08 | 0.61 | 0.13 | 94 | 1019.0 |
| 20260831074859 | 17 | 258 | 3.2 | 9.7 | 0.08 | 0.61 | 0.13 | 94 | 1019.1 |
| 20260831074333 | 17 | 229 | 4.8 | 12.9 | 0.05 | 0.58 | 0.10 | 94 | 1019.1 |
| 20260831073847 | 17 | 209 | 4.8 | 16.1 | 0.05 | 0.58 | 0.10 | 94 | 1019.0 |
| 20260831073341 | 17 | 238 | 6.4 | 16.1 | 0.05 | 0.58 | 0.10 | 94 | 1019.2 |
| 20260831072836 | 17 | 215 | 3.2 | 11.3 | 0.05 | 0.58 | 0.10 | 94 | 1019.3 |
| 20260831072350 | 17 | 231 | 3.2 | 11.3 | 0.05 | 0.58 | 0.10 | 94 | 1019.3 |
| 20260831071841 | 17 | 223 | 1.6 | 4.8 | 0.08 | 0.58 | 0.10 | 94 | 1019.3 |
| 20260831071336 | 17 | 186 | 0.0 | 3.2 | 0.08 | 0.58 | 0.10 | 94 | 1019.3 |
| 20260831070850 | 17 | 244 | 0.0 | 3.2 | 0.05 | 0.56 | 0.08 | 94 | 1019.4 |